Voltar ao catálogo

DELTA 1 R/B

AtivoPO
NORAD 20323·ROCKET BODY·🇺🇸 United States

Lançado Nov 18, 1989 de Vandenberg Space Force Base

Loading…

Próximas Passagens (próximas 24 horas)

TLE

AtualizadoSource: Space-Track

Época: Sep 13, 2026, 23:38 UTC

1 20323U 89089B   26256.98529183  .00000205  00000-0  59585-4 0  9993
2 20323  97.0661  74.3520 0067597 246.8969 112.5095 14.50774214923035

Acompanhe DELTA 1 R/B em tempo real com AllMySat

Download on the App Store